Year,Month,Day,Hour,Minute,Value (Times are PST for temperature in C)
2021,01,15,00,00,5.30
2021,01,15,00,01,5.30
2021,01,15,00,02,5.30
2021,01,15,00,03,5.30
2021,01,15,00,04,5.30
2021,01,15,00,05,5.40
2021,01,15,00,06,5.40
2021,01,15,00,07,5.40
2021,01,15,00,08,5.40
2021,01,15,00,09,5.40
2021,01,15,00,10,5.40
2021,01,15,00,11,5.40
2021,01,15,00,12,5.40
2021,01,15,00,13,5.40
2021,01,15,00,14,5.40
2021,01,15,00,15,5.40
2021,01,15,00,16,5.50
2021,01,15,00,17,5.50
2021,01,15,00,18,5.50
2021,01,15,00,19,5.50
2021,01,15,00,20,5.50
2021,01,15,00,21,5.50
2021,01,15,00,22,5.50
2021,01,15,00,23,5.50
2021,01,15,00,24,5.50
2021,01,15,00,25,5.50
2021,01,15,00,26,5.60
2021,01,15,00,27,5.60
2021,01,15,00,28,5.60
2021,01,15,00,29,5.60
2021,01,15,00,30,5.60
2021,01,15,00,31,5.60
2021,01,15,00,32,5.60
2021,01,15,00,33,5.60
2021,01,15,00,34,5.60
2021,01,15,00,35,5.60
2021,01,15,00,36,5.70
2021,01,15,00,37,5.70
2021,01,15,00,38,5.70
2021,01,15,00,39,5.70
2021,01,15,00,40,5.70
2021,01,15,00,41,5.70
2021,01,15,00,42,5.70
2021,01,15,00,43,5.70
2021,01,15,00,44,5.70
2021,01,15,00,45,5.80
2021,01,15,00,46,5.80
2021,01,15,00,47,5.80
2021,01,15,00,48,5.80
2021,01,15,00,49,5.80
2021,01,15,00,50,5.80
2021,01,15,00,51,5.80
2021,01,15,00,52,5.80
2021,01,15,00,53,5.80
2021,01,15,00,54,5.80
2021,01,15,00,55,5.80
2021,01,15,00,56,5.80
2021,01,15,00,57,5.80
2021,01,15,00,58,5.80
2021,01,15,00,59,5.80
2021,01,15,01,00,5.80
2021,01,15,01,01,5.80
2021,01,15,01,02,5.80
2021,01,15,01,03,5.80
2021,01,15,01,04,5.80
2021,01,15,01,05,5.80
2021,01,15,01,06,5.80
2021,01,15,01,07,5.80
2021,01,15,01,08,5.80
2021,01,15,01,09,5.80
2021,01,15,01,10,5.80
2021,01,15,01,11,5.80
2021,01,15,01,12,5.80
2021,01,15,01,13,5.80
2021,01,15,01,14,5.80
2021,01,15,01,15,5.80
2021,01,15,01,16,5.80
2021,01,15,01,17,5.80
2021,01,15,01,18,5.80
2021,01,15,01,19,5.80
2021,01,15,01,20,5.80
2021,01,15,01,21,5.90
2021,01,15,01,22,5.90
2021,01,15,01,23,5.90
2021,01,15,01,24,5.90
2021,01,15,01,25,5.90
2021,01,15,01,26,5.90
2021,01,15,01,27,5.90
2021,01,15,01,28,5.90
2021,01,15,01,29,5.90
2021,01,15,01,30,5.90
2021,01,15,01,31,5.90
2021,01,15,01,32,5.90
2021,01,15,01,33,5.90
2021,01,15,01,34,5.90
2021,01,15,01,35,5.90
2021,01,15,01,36,5.90
2021,01,15,01,37,5.90
2021,01,15,01,38,6.00
2021,01,15,01,39,6.00
2021,01,15,01,40,6.00
2021,01,15,01,41,6.00
2021,01,15,01,42,6.00
2021,01,15,01,43,6.00
2021,01,15,01,44,6.00
2021,01,15,01,45,6.00
2021,01,15,01,46,6.00
2021,01,15,01,47,6.00
2021,01,15,01,48,6.00
2021,01,15,01,49,6.00
2021,01,15,01,50,6.00
2021,01,15,01,51,6.00
2021,01,15,01,52,5.90
2021,01,15,01,53,5.90
2021,01,15,01,54,5.90
2021,01,15,01,55,5.90
2021,01,15,01,56,5.90
2021,01,15,01,57,5.90
2021,01,15,01,58,5.90
2021,01,15,01,59,5.90
2021,01,15,02,00,5.90
2021,01,15,02,01,5.90
2021,01,15,02,02,5.80
2021,01,15,02,03,5.80
2021,01,15,02,04,5.80
2021,01,15,02,05,5.80
2021,01,15,02,06,5.80
2021,01,15,02,07,5.80
2021,01,15,02,08,5.80
2021,01,15,02,09,5.80
2021,01,15,02,10,5.80
2021,01,15,02,11,5.80
2021,01,15,02,12,5.80
2021,01,15,02,13,5.80
2021,01,15,02,14,5.80
2021,01,15,02,15,5.80
2021,01,15,02,16,5.80
2021,01,15,02,17,5.80
2021,01,15,02,18,5.80
2021,01,15,02,19,5.80
2021,01,15,02,20,5.80
2021,01,15,02,21,5.80
2021,01,15,02,22,5.80
2021,01,15,06,03,4.80
2021,01,15,06,04,4.80
2021,01,15,06,05,4.80
2021,01,15,06,06,4.80
2021,01,15,06,07,4.80
2021,01,15,06,08,4.80
2021,01,15,06,09,4.80
2021,01,15,06,10,4.80
2021,01,15,06,11,4.80
2021,01,15,06,12,4.70
2021,01,15,06,13,4.70
2021,01,15,06,14,4.70
2021,01,15,06,15,4.70
2021,01,15,06,16,4.70
2021,01,15,06,17,4.70
2021,01,15,06,18,4.70
2021,01,15,06,19,4.70
2021,01,15,06,20,4.80
2021,01,15,06,21,4.80
2021,01,15,06,22,4.80
2021,01,15,06,23,4.90
2021,01,15,06,24,4.90
2021,01,15,06,25,4.90
2021,01,15,06,26,4.90
2021,01,15,06,27,5.00
2021,01,15,06,28,5.00
2021,01,15,06,29,5.10
2021,01,15,06,30,5.10
2021,01,15,06,31,5.10
2021,01,15,06,32,5.20
2021,01,15,06,33,5.30
2021,01,15,06,34,5.40
2021,01,15,06,35,5.40
2021,01,15,06,36,5.40
2021,01,15,06,37,5.40
2021,01,15,06,38,5.40
2021,01,15,06,39,5.40
2021,01,15,06,40,5.40
2021,01,15,06,41,5.30
2021,01,15,06,42,5.30
2021,01,15,06,43,5.30
2021,01,15,06,44,5.40
2021,01,15,06,45,5.40
2021,01,15,06,46,5.40
2021,01,15,06,47,5.40
2021,01,15,06,48,5.40
2021,01,15,06,49,5.40
2021,01,15,06,50,5.50
2021,01,15,06,51,5.50
2021,01,15,06,52,5.50
2021,01,15,06,53,5.50
2021,01,15,06,54,5.50
2021,01,15,06,55,5.50
2021,01,15,06,56,5.50
2021,01,15,06,57,5.50
2021,01,15,06,58,5.50
2021,01,15,06,59,5.50
2021,01,15,07,00,5.40
2021,01,15,07,01,5.40
2021,01,15,07,02,5.40
2021,01,15,07,03,5.40
2021,01,15,07,04,5.40
2021,01,15,07,05,5.50
2021,01,15,07,06,5.50
2021,01,15,07,07,5.50
2021,01,15,07,08,5.60
2021,01,15,07,09,5.60
2021,01,15,07,10,5.60
2021,01,15,07,11,5.60
2021,01,15,07,12,5.60
2021,01,15,07,13,5.60
2021,01,15,07,14,5.60
2021,01,15,07,15,5.60
2021,01,15,07,16,5.60
2021,01,15,07,17,5.60
2021,01,15,07,18,5.70
2021,01,15,07,19,5.70
2021,01,15,07,20,5.70
2021,01,15,07,21,5.80
2021,01,15,07,22,5.80
2021,01,15,07,23,5.80
2021,01,15,07,24,5.80
2021,01,15,07,25,5.80
2021,01,15,07,26,5.80
2021,01,15,07,27,5.80
2021,01,15,07,28,5.90
2021,01,15,07,29,5.90
2021,01,15,07,30,5.90
2021,01,15,07,31,6.00
2021,01,15,07,32,6.00
2021,01,15,07,33,6.10
2021,01,15,07,34,6.10
2021,01,15,07,35,6.10
2021,01,15,07,36,6.10
2021,01,15,07,37,6.20
2021,01,15,07,38,6.20
2021,01,15,07,39,6.20
2021,01,15,07,40,6.20
2021,01,15,07,41,6.20
2021,01,15,07,42,6.10
2021,01,15,07,43,6.10
2021,01,15,07,44,6.10
2021,01,15,07,45,6.10
2021,01,15,07,46,6.10
2021,01,15,07,47,6.00
2021,01,15,07,48,6.00
2021,01,15,07,49,6.00
2021,01,15,07,50,5.90
2021,01,15,07,51,5.90
2021,01,15,07,52,5.90
2021,01,15,07,53,5.90
2021,01,15,07,54,5.90
2021,01,15,07,55,5.90
2021,01,15,07,56,5.90
2021,01,15,07,57,5.90
2021,01,15,07,58,5.90
2021,01,15,07,59,5.90
2021,01,15,08,00,6.00
2021,01,15,08,01,6.00
2021,01,15,08,02,6.00
2021,01,15,08,03,6.10
2021,01,15,08,04,6.00
2021,01,15,08,05,6.00
2021,01,15,08,06,6.00
2021,01,15,08,07,6.00
2021,01,15,08,08,6.00
2021,01,15,08,09,6.00
2021,01,15,08,10,6.00
2021,01,15,08,11,6.00
2021,01,15,08,12,6.00
2021,01,15,08,13,6.00
2021,01,15,08,14,6.00
2021,01,15,08,15,6.10
2021,01,15,08,16,6.10
2021,01,15,08,17,6.10
2021,01,15,08,18,6.10
2021,01,15,08,19,6.10
2021,01,15,08,20,6.10
2021,01,15,08,21,6.00
2021,01,15,08,22,6.00
2021,01,15,08,23,6.00
2021,01,15,08,24,5.90
2021,01,15,08,25,5.90
2021,01,15,08,26,5.90
2021,01,15,08,27,5.80
2021,01,15,08,28,5.80
2021,01,15,08,29,5.80
2021,01,15,08,30,5.70
2021,01,15,08,31,5.70
2021,01,15,08,32,5.70
2021,01,15,08,33,5.60
2021,01,15,08,34,5.60
2021,01,15,08,35,5.60
2021,01,15,08,36,5.60
2021,01,15,08,37,5.60
2021,01,15,08,38,5.60
2021,01,15,08,39,5.60
2021,01,15,08,40,5.60
2021,01,15,08,41,5.60
2021,01,15,08,42,5.60
2021,01,15,08,43,5.60
2021,01,15,08,44,5.60
2021,01,15,08,45,5.60
2021,01,15,08,46,5.60
2021,01,15,08,47,5.70
2021,01,15,08,48,5.70
2021,01,15,08,49,5.70
2021,01,15,08,50,5.70
2021,01,15,08,51,5.70
2021,01,15,08,52,5.70
2021,01,15,08,53,5.70
2021,01,15,08,54,5.70
2021,01,15,08,55,5.70
2021,01,15,08,56,5.70
2021,01,15,08,57,5.70
2021,01,15,08,58,5.70
2021,01,15,08,59,5.70
2021,01,15,09,00,5.70
2021,01,15,09,01,5.70
2021,01,15,09,02,5.80
2021,01,15,09,03,5.80
2021,01,15,09,04,5.80
2021,01,15,09,05,5.80
2021,01,15,09,06,5.80
2021,01,15,09,07,5.80
2021,01,15,09,08,5.80
2021,01,15,09,09,5.80
2021,01,15,09,10,5.80
2021,01,15,09,11,5.80
2021,01,15,09,12,5.80
2021,01,15,09,13,5.80
2021,01,15,09,14,5.80
2021,01,15,09,15,5.70
2021,01,15,09,16,5.70
2021,01,15,09,17,5.70
2021,01,15,09,18,5.70
2021,01,15,09,19,5.70
2021,01,15,09,20,5.70
2021,01,15,09,21,5.70
2021,01,15,09,22,5.70
2021,01,15,09,23,5.70
2021,01,15,09,24,5.70
2021,01,15,09,25,5.70
2021,01,15,09,26,5.70
2021,01,15,09,27,5.80
2021,01,15,09,28,5.80
2021,01,15,09,29,5.80
2021,01,15,09,30,5.80
2021,01,15,09,31,5.80
2021,01,15,09,32,5.80
2021,01,15,09,33,5.80
2021,01,15,09,34,5.80
2021,01,15,09,35,5.80
2021,01,15,09,36,5.80
2021,01,15,09,37,5.80
2021,01,15,09,38,5.80
2021,01,15,09,39,5.80
2021,01,15,09,40,5.90
2021,01,15,09,41,5.90
2021,01,15,09,42,5.90
2021,01,15,09,43,5.90
2021,01,15,09,44,5.90
2021,01,15,09,45,6.00
2021,01,15,09,46,6.00
2021,01,15,09,47,6.00
2021,01,15,09,48,6.10
2021,01,15,09,49,6.10
2021,01,15,09,50,6.10
2021,01,15,09,51,6.10
2021,01,15,09,52,6.20
2021,01,15,09,53,6.20
2021,01,15,09,54,6.20
2021,01,15,09,55,6.20
2021,01,15,09,56,6.30
2021,01,15,09,57,6.30
2021,01,15,09,58,6.30
2021,01,15,09,59,6.30
2021,01,15,10,00,6.40
2021,01,15,10,01,6.40
2021,01,15,10,02,6.40
2021,01,15,10,03,6.50
2021,01,15,10,04,6.50
2021,01,15,10,05,6.50
2021,01,15,10,06,6.50
2021,01,15,10,07,6.60
2021,01,15,10,08,6.60
2021,01,15,10,09,6.60
2021,01,15,10,10,6.60
2021,01,15,10,11,6.70
2021,01,15,10,12,6.70
2021,01,15,10,13,6.70
2021,01,15,10,14,6.70
2021,01,15,10,15,6.70
2021,01,15,10,16,6.70
2021,01,15,10,17,6.70
2021,01,15,10,18,6.70
2021,01,15,10,19,6.80
2021,01,15,10,20,6.80
2021,01,15,10,21,6.80
2021,01,15,10,22,6.80
2021,01,15,10,23,6.80
2021,01,15,10,24,6.80
2021,01,15,10,25,6.80
2021,01,15,10,26,6.80
2021,01,15,10,27,6.90
2021,01,15,10,28,6.90
2021,01,15,10,29,6.90
2021,01,15,10,30,7.00
2021,01,15,10,31,7.00
2021,01,15,10,32,7.10
2021,01,15,10,33,7.10
2021,01,15,10,34,7.20
2021,01,15,10,35,7.20
2021,01,15,10,36,7.20
2021,01,15,10,37,7.20
2021,01,15,10,38,7.20
2021,01,15,10,39,7.20
2021,01,15,10,40,7.20
2021,01,15,10,41,7.20
2021,01,15,10,42,7.20
2021,01,15,10,43,7.30
2021,01,15,10,44,7.30
2021,01,15,10,45,7.40
2021,01,15,10,46,7.40
2021,01,15,10,47,7.40
2021,01,15,10,48,7.50
2021,01,15,10,49,7.50
2021,01,15,10,50,7.50
2021,01,15,10,51,7.60
2021,01,15,10,52,7.60
2021,01,15,10,53,7.60
2021,01,15,10,54,7.70
2021,01,15,10,55,7.70
2021,01,15,10,56,7.70
2021,01,15,10,57,7.80
2021,01,15,10,58,7.80
2021,01,15,10,59,7.90
2021,01,15,11,00,7.90
2021,01,15,11,01,8.00
2021,01,15,11,02,8.00
2021,01,15,11,03,8.10
2021,01,15,11,04,8.10
2021,01,15,11,05,8.20
2021,01,15,11,06,8.30
2021,01,15,11,07,8.40
2021,01,15,11,08,8.40
2021,01,15,11,09,8.50
2021,01,15,11,10,8.50
2021,01,15,11,11,8.50
2021,01,15,11,12,8.50
2021,01,15,11,13,8.60
2021,01,15,11,14,8.60
2021,01,15,11,15,8.70
2021,01,15,11,16,8.70
2021,01,15,11,17,8.70
2021,01,15,11,18,8.80
2021,01,15,11,19,8.80
2021,01,15,11,20,8.80
2021,01,15,11,21,8.90
2021,01,15,11,22,9.00
2021,01,15,11,23,9.00
2021,01,15,11,24,9.10
2021,01,15,11,25,9.10
2021,01,15,11,26,9.20
2021,01,15,11,27,9.30
2021,01,15,11,28,9.30
2021,01,15,11,29,9.40
2021,01,15,11,30,9.40
2021,01,15,11,31,9.50
2021,01,15,11,32,9.60
2021,01,15,11,33,9.60
2021,01,15,11,34,9.60
2021,01,15,11,35,9.70
2021,01,15,11,36,9.70
2021,01,15,11,37,9.70
2021,01,15,11,38,9.70
2021,01,15,11,39,9.80
2021,01,15,11,40,9.80
2021,01,15,11,41,9.90
2021,01,15,11,42,10.00
2021,01,15,11,43,10.10
2021,01,15,11,44,10.20
2021,01,15,11,45,10.30
2021,01,15,11,46,10.40
2021,01,15,11,47,10.40
2021,01,15,11,48,10.40
2021,01,15,11,49,10.40
2021,01,15,11,50,10.40
2021,01,15,11,51,10.40
2021,01,15,11,52,10.40
2021,01,15,11,53,10.40
2021,01,15,11,54,10.40
2021,01,15,11,55,10.40
2021,01,15,11,56,10.40
2021,01,15,11,57,10.50
2021,01,15,11,58,10.60
2021,01,15,11,59,10.60
2021,01,15,12,00,10.70
2021,01,15,12,01,10.80
2021,01,15,12,02,10.90
2021,01,15,12,03,11.00
2021,01,15,12,04,11.10
2021,01,15,12,05,11.30
2021,01,15,12,06,11.40
2021,01,15,12,07,11.40
2021,01,15,12,08,11.40
2021,01,15,12,09,11.40
2021,01,15,12,10,11.40
2021,01,15,12,11,11.40
2021,01,15,12,12,11.40
2021,01,15,12,13,11.40
2021,01,15,12,14,11.50
2021,01,15,12,15,11.50
2021,01,15,12,16,11.50
2021,01,15,12,17,11.50
2021,01,15,12,18,11.50
2021,01,15,12,19,11.50
2021,01,15,12,20,11.50
2021,01,15,12,21,11.60
2021,01,15,12,22,11.60
2021,01,15,12,23,11.70
2021,01,15,12,24,11.70
2021,01,15,12,25,11.80
2021,01,15,12,26,11.80
2021,01,15,12,27,11.80
2021,01,15,12,28,11.80
2021,01,15,12,29,11.90
2021,01,15,12,30,11.90
2021,01,15,12,31,11.90
2021,01,15,12,32,12.00
2021,01,15,12,33,12.00
2021,01,15,12,34,12.10
2021,01,15,12,35,12.10
2021,01,15,12,36,12.20
2021,01,15,12,37,12.20
2021,01,15,12,38,12.20
2021,01,15,12,39,12.20
2021,01,15,12,40,12.20
2021,01,15,12,41,12.20
2021,01,15,12,42,12.20
2021,01,15,12,43,12.30
2021,01,15,12,44,12.20
2021,01,15,12,45,12.20
2021,01,15,12,46,12.20
2021,01,15,12,47,12.20
2021,01,15,12,48,12.20
2021,01,15,12,49,12.20
2021,01,15,12,50,12.20
2021,01,15,12,51,12.20
2021,01,15,12,52,12.20
2021,01,15,12,53,12.20
2021,01,15,12,54,12.20
2021,01,15,12,55,12.20
2021,01,15,12,56,12.20
2021,01,15,12,57,12.20
2021,01,15,12,58,12.20
2021,01,15,12,59,12.30
2021,01,15,13,00,12.20
2021,01,15,13,01,12.20
2021,01,15,13,02,12.30
2021,01,15,13,03,12.30
2021,01,15,13,04,12.30
2021,01,15,13,05,12.30
2021,01,15,13,06,12.30
2021,01,15,13,07,12.30
2021,01,15,13,08,12.30
2021,01,15,13,09,12.40
2021,01,15,13,10,12.40
2021,01,15,13,11,12.40
2021,01,15,13,12,12.40
2021,01,15,13,13,12.50
2021,01,15,13,14,12.50
2021,01,15,13,15,12.50
2021,01,15,13,16,12.50
2021,01,15,13,17,12.50
2021,01,15,13,18,12.50
2021,01,15,13,19,12.50
2021,01,15,13,20,12.60
2021,01,15,13,21,12.60
2021,01,15,13,22,12.60
2021,01,15,13,23,12.60
2021,01,15,13,24,12.60
2021,01,15,13,25,12.70
2021,01,15,13,26,12.70
2021,01,15,13,27,12.70
2021,01,15,13,28,12.70
2021,01,15,13,29,12.70
2021,01,15,13,30,12.60
2021,01,15,13,31,12.60
2021,01,15,13,32,12.60
2021,01,15,13,33,12.50
2021,01,15,13,34,12.50
2021,01,15,13,35,12.40
2021,01,15,13,36,12.40
2021,01,15,13,37,12.40
2021,01,15,13,38,12.40
2021,01,15,13,39,12.40
2021,01,15,13,40,12.40
2021,01,15,13,41,12.40
2021,01,15,13,42,12.30
2021,01,15,13,43,12.30
2021,01,15,13,44,12.30
2021,01,15,13,45,12.30
2021,01,15,13,46,12.30
2021,01,15,13,47,12.20
2021,01,15,13,48,12.20
2021,01,15,13,49,12.20
2021,01,15,13,50,12.20
2021,01,15,13,51,12.20
2021,01,15,13,52,12.20
2021,01,15,13,53,12.20
2021,01,15,13,54,12.20
2021,01,15,13,55,12.20
2021,01,15,13,56,12.20
2021,01,15,13,57,12.20
2021,01,15,13,58,12.20
2021,01,15,13,59,12.20
2021,01,15,14,00,12.20
2021,01,15,14,01,12.10
2021,01,15,14,02,12.10
2021,01,15,14,03,12.10
2021,01,15,14,04,12.10
2021,01,15,14,05,12.10
2021,01,15,14,06,12.10
2021,01,15,14,07,12.10
2021,01,15,14,08,12.00
2021,01,15,14,09,12.00
2021,01,15,14,10,11.90
2021,01,15,14,11,11.90
2021,01,15,14,12,11.90
2021,01,15,14,13,11.90
2021,01,15,14,14,11.90
2021,01,15,14,15,11.90
2021,01,15,14,16,11.80
2021,01,15,14,17,11.80
2021,01,15,14,18,11.70
2021,01,15,14,19,11.60
2021,01,15,14,20,11.60
2021,01,15,14,21,11.50
2021,01,15,14,22,11.50
2021,01,15,14,23,11.40
2021,01,15,14,24,11.40
2021,01,15,14,25,11.40
2021,01,15,14,26,11.30
2021,01,15,14,27,11.30
2021,01,15,14,28,11.30
2021,01,15,14,29,11.20
2021,01,15,14,30,11.20
2021,01,15,14,31,11.10
2021,01,15,14,32,11.10
2021,01,15,14,33,11.00
2021,01,15,14,34,10.90
2021,01,15,14,35,10.90
2021,01,15,14,36,10.80
2021,01,15,14,37,10.80
2021,01,15,14,38,10.80
2021,01,15,14,39,10.80
2021,01,15,14,40,10.80
2021,01,15,14,41,10.80
2021,01,15,14,42,10.70
2021,01,15,14,43,10.70
2021,01,15,14,44,10.70
2021,01,15,14,45,10.70
2021,01,15,14,46,10.70
2021,01,15,14,47,10.70
2021,01,15,14,48,10.70
2021,01,15,14,49,10.70
2021,01,15,14,50,10.70
2021,01,15,14,51,10.70
2021,01,15,14,52,10.70
2021,01,15,14,53,10.70
2021,01,15,14,54,10.70
2021,01,15,14,55,10.70
2021,01,15,14,56,10.70
2021,01,15,14,57,10.70
2021,01,15,14,58,10.70
2021,01,15,14,59,10.70
2021,01,15,15,00,10.70
2021,01,15,15,01,10.70
2021,01,15,15,02,10.70
2021,01,15,15,03,10.70
2021,01,15,15,04,10.70
2021,01,15,15,05,10.70
2021,01,15,15,06,10.70
2021,01,15,15,07,10.70
2021,01,15,15,08,10.70
2021,01,15,15,09,10.80
2021,01,15,15,10,10.80
2021,01,15,15,11,10.80
2021,01,15,15,12,10.80
2021,01,15,15,13,10.80
2021,01,15,15,14,10.90
2021,01,15,15,15,10.90
2021,01,15,15,16,11.00
2021,01,15,15,17,11.10
2021,01,15,15,18,11.10
2021,01,15,15,19,11.20
2021,01,15,15,20,11.20
2021,01,15,15,21,11.20
2021,01,15,15,22,11.30
2021,01,15,15,23,11.30
2021,01,15,15,24,11.30
2021,01,15,15,25,11.40
2021,01,15,15,26,11.40
2021,01,15,15,27,11.40
2021,01,15,15,28,11.40
2021,01,15,15,29,11.40
2021,01,15,15,30,11.40
2021,01,15,15,31,11.40
2021,01,15,15,32,11.40
2021,01,15,15,33,11.40
2021,01,15,15,34,11.40
2021,01,15,15,35,11.40
2021,01,15,15,36,11.40
2021,01,15,15,37,11.40
2021,01,15,15,38,11.40
2021,01,15,15,39,11.40
2021,01,15,15,40,11.30
2021,01,15,15,41,11.30
2021,01,15,15,42,11.30
2021,01,15,15,43,11.20
2021,01,15,15,44,11.20
2021,01,15,15,45,11.20
2021,01,15,15,46,11.20
2021,01,15,15,47,11.20
2021,01,15,15,48,11.20
2021,01,15,15,49,11.20
2021,01,15,15,50,11.10
2021,01,15,15,51,11.20
2021,01,15,15,52,11.20
2021,01,15,15,53,11.20
2021,01,15,15,54,11.20
2021,01,15,15,55,11.20
2021,01,15,15,56,11.20
2021,01,15,15,57,11.20
2021,01,15,15,58,11.20
2021,01,15,15,59,11.20
2021,01,15,16,00,11.20
2021,01,15,16,01,11.20
2021,01,15,16,02,11.20
2021,01,15,16,03,11.20
2021,01,15,16,04,11.20
2021,01,15,16,05,11.10
2021,01,15,16,06,11.10
2021,01,15,16,07,11.10
2021,01,15,16,08,11.00
2021,01,15,16,09,11.00
2021,01,15,16,10,10.90
2021,01,15,16,11,10.90
2021,01,15,16,12,10.80
2021,01,15,16,13,10.70
2021,01,15,16,14,10.60
2021,01,15,16,15,10.50
2021,01,15,16,16,10.40
2021,01,15,16,17,10.30
2021,01,15,16,18,10.10
2021,01,15,16,19,10.00
2021,01,15,16,20,9.90
2021,01,15,16,21,9.80
2021,01,15,16,22,9.70
2021,01,15,16,23,9.70
2021,01,15,16,24,9.70
2021,01,15,16,25,9.60
2021,01,15,16,26,9.60
2021,01,15,16,27,9.50
2021,01,15,16,28,9.40
2021,01,15,16,29,9.40
2021,01,15,16,30,9.30
2021,01,15,16,31,9.30
2021,01,15,16,32,9.20
2021,01,15,16,33,9.20
2021,01,15,16,34,9.10
2021,01,15,16,35,9.00
2021,01,15,16,36,9.00
2021,01,15,16,37,8.90
2021,01,15,16,38,8.80
2021,01,15,16,39,8.80
2021,01,15,16,40,8.80
2021,01,15,16,41,8.70
2021,01,15,16,42,8.60
2021,01,15,16,43,8.60
2021,01,15,16,44,8.50
2021,01,15,16,45,8.50
2021,01,15,16,46,8.40
2021,01,15,16,47,8.40
2021,01,15,16,48,8.30
2021,01,15,16,49,8.30
2021,01,15,16,50,8.30
2021,01,15,16,51,8.20
2021,01,15,16,52,8.20
2021,01,15,16,53,8.20
2021,01,15,16,54,8.20
2021,01,15,16,55,8.10
2021,01,15,16,56,8.10
2021,01,15,16,57,8.10
2021,01,15,16,58,8.10
2021,01,15,16,59,8.00
2021,01,15,17,00,8.00
2021,01,15,17,01,7.90
2021,01,15,17,02,7.90
2021,01,15,17,03,7.90
2021,01,15,17,04,7.90
2021,01,15,17,05,7.80
2021,01,15,17,06,7.80
2021,01,15,17,07,7.80
2021,01,15,17,08,7.80
2021,01,15,17,09,7.70
2021,01,15,17,10,7.70
2021,01,15,17,11,7.70
2021,01,15,17,12,7.60
2021,01,15,17,13,7.60
2021,01,15,17,14,7.50
2021,01,15,17,15,7.50
2021,01,15,17,16,7.40
2021,01,15,17,17,7.40
2021,01,15,17,18,7.30
2021,01,15,17,19,7.20
2021,01,15,17,20,7.20
2021,01,15,17,21,7.20
2021,01,15,17,22,7.10
2021,01,15,17,23,7.10
2021,01,15,17,24,7.00
2021,01,15,17,25,6.90
2021,01,15,17,26,6.90
2021,01,15,17,27,6.80
2021,01,15,17,28,6.80
2021,01,15,17,29,6.80
2021,01,15,17,30,6.80
2021,01,15,17,31,6.70
2021,01,15,17,32,6.70
2021,01,15,17,33,6.70
2021,01,15,17,34,6.60
2021,01,15,17,35,6.60
2021,01,15,17,36,6.60
2021,01,15,17,37,6.50
2021,01,15,17,38,6.50
2021,01,15,17,39,6.40
2021,01,15,17,40,6.40
2021,01,15,17,41,6.40
2021,01,15,17,42,6.30
2021,01,15,17,43,6.30
2021,01,15,17,44,6.30
2021,01,15,17,45,6.30
2021,01,15,17,46,6.30
2021,01,15,17,47,6.20
2021,01,15,17,48,6.20
2021,01,15,17,49,6.20
2021,01,15,17,50,6.10
2021,01,15,17,51,6.10
2021,01,15,17,52,6.10
2021,01,15,17,53,6.10
2021,01,15,17,54,6.00
2021,01,15,17,55,6.00
2021,01,15,17,56,6.00
2021,01,15,17,57,6.00
2021,01,15,17,58,6.00
2021,01,15,17,59,6.00
2021,01,15,18,00,6.00
2021,01,15,18,01,5.90
2021,01,15,18,02,5.90
2021,01,15,18,03,5.90
2021,01,15,18,04,5.90
2021,01,15,18,05,5.80
2021,01,15,18,06,5.80
2021,01,15,18,07,5.80
2021,01,15,18,08,5.80
2021,01,15,18,09,5.80
2021,01,15,18,10,5.80
2021,01,15,18,11,5.70
2021,01,15,18,12,5.70
2021,01,15,18,13,5.70
2021,01,15,18,14,5.70
2021,01,15,18,15,5.70
2021,01,15,18,16,5.60
2021,01,15,18,17,5.60
2021,01,15,18,18,5.60
2021,01,15,18,19,5.60
2021,01,15,18,20,5.60
2021,01,15,18,21,5.50
2021,01,15,18,22,5.50
2021,01,15,18,23,5.50
2021,01,15,18,24,5.40
2021,01,15,18,25,5.40
2021,01,15,18,26,5.40
2021,01,15,18,27,5.40
2021,01,15,18,28,5.30
2021,01,15,18,29,5.30
2021,01,15,18,30,5.30
2021,01,15,18,31,5.30
2021,01,15,18,32,5.30
2021,01,15,18,33,5.20
2021,01,15,18,34,5.20
2021,01,15,18,35,5.20
2021,01,15,18,36,5.20
2021,01,15,18,37,5.20
2021,01,15,18,38,5.20
2021,01,15,18,39,5.20
2021,01,15,18,40,5.20
2021,01,15,18,41,5.20
2021,01,15,18,42,5.20
2021,01,15,18,43,5.20
2021,01,15,18,44,5.10
2021,01,15,18,45,5.10
2021,01,15,18,46,5.10
2021,01,15,18,47,5.10
2021,01,15,18,48,5.10
2021,01,15,18,49,5.10
2021,01,15,18,50,5.10
2021,01,15,18,51,5.10
2021,01,15,18,52,5.10
2021,01,15,18,53,5.10
2021,01,15,18,54,5.10
2021,01,15,18,55,5.10
2021,01,15,18,56,5.10
2021,01,15,18,57,5.10
2021,01,15,18,58,5.00
2021,01,15,18,59,5.00
2021,01,15,19,00,5.00
2021,01,15,19,01,4.90
2021,01,15,19,02,4.90
2021,01,15,19,03,4.90
2021,01,15,19,04,4.90
2021,01,15,19,05,4.80
2021,01,15,19,06,4.80
2021,01,15,19,07,4.80
2021,01,15,19,08,4.80
2021,01,15,19,09,4.70
2021,01,15,19,10,4.70
2021,01,15,19,11,4.70
2021,01,15,19,12,4.70
2021,01,15,19,13,4.70
2021,01,15,19,14,4.70
2021,01,15,19,15,4.70
2021,01,15,19,16,4.70
2021,01,15,19,17,4.60
2021,01,15,19,18,4.60
2021,01,15,19,19,4.60
2021,01,15,19,20,4.60
2021,01,15,19,21,4.60
2021,01,15,19,22,4.60
2021,01,15,19,23,4.60
2021,01,15,19,24,4.60
2021,01,15,19,25,4.60
2021,01,15,19,26,4.60
2021,01,15,19,27,4.60
2021,01,15,19,28,4.60
2021,01,15,19,29,4.60
2021,01,15,19,30,4.50
2021,01,15,19,31,4.40
2021,01,15,19,32,4.40
2021,01,15,19,33,4.40
2021,01,15,19,34,4.40
2021,01,15,19,35,4.40
2021,01,15,19,36,4.50
2021,01,15,19,37,4.50
2021,01,15,19,38,4.40
2021,01,15,19,39,4.40
2021,01,15,19,40,4.40
2021,01,15,19,41,4.40
2021,01,15,19,42,4.40
2021,01,15,19,43,4.30
2021,01,15,19,44,4.30
2021,01,15,19,45,4.30
2021,01,15,19,46,4.30
2021,01,15,19,47,4.30
2021,01,15,19,48,4.30
2021,01,15,19,49,4.30
2021,01,15,19,50,4.30
2021,01,15,19,51,4.30
2021,01,15,19,52,4.30
2021,01,15,19,53,4.30
2021,01,15,19,54,4.30
2021,01,15,19,55,4.30
2021,01,15,19,56,4.30
2021,01,15,19,57,4.30
2021,01,15,19,58,4.30
2021,01,15,19,59,4.30
2021,01,15,20,00,4.30
2021,01,15,20,01,4.30
2021,01,15,20,02,4.30
2021,01,15,20,03,4.30
2021,01,15,20,04,4.30
2021,01,15,20,05,4.30
2021,01,15,20,06,4.30
2021,01,15,20,07,4.30
2021,01,15,20,08,4.30
2021,01,15,20,09,4.30
2021,01,15,20,10,4.30
2021,01,15,20,11,4.30
2021,01,15,20,12,4.30
2021,01,15,20,13,4.40
2021,01,15,20,14,4.40
2021,01,15,20,15,4.40
2021,01,15,20,16,4.40
2021,01,15,20,17,4.40
2021,01,15,20,18,4.40
2021,01,15,20,19,4.40
2021,01,15,20,20,4.30
2021,01,15,20,21,4.40
2021,01,15,20,22,4.40
2021,01,15,20,23,4.40
2021,01,15,20,24,4.40
2021,01,15,20,25,4.40
2021,01,15,20,26,4.40
2021,01,15,20,27,4.30
2021,01,15,20,28,4.30
2021,01,15,20,29,4.30
2021,01,15,20,30,4.30
2021,01,15,20,31,4.30
2021,01,15,20,32,4.30
2021,01,15,20,33,4.30
2021,01,15,20,34,4.30
2021,01,15,20,35,4.30
2021,01,15,20,36,4.30
2021,01,15,20,37,4.30
2021,01,15,20,38,4.30
2021,01,15,20,39,4.30
2021,01,15,20,40,4.30
2021,01,15,20,41,4.30
2021,01,15,20,42,4.20
2021,01,15,20,43,4.20
2021,01,15,20,44,4.20
2021,01,15,20,45,4.20
2021,01,15,20,46,4.20
2021,01,15,20,47,4.20
2021,01,15,20,48,4.20
2021,01,15,20,49,4.20
2021,01,15,20,50,4.20
2021,01,15,20,51,4.20
2021,01,15,20,52,4.20
2021,01,15,20,53,4.20
2021,01,15,20,54,4.20
2021,01,15,20,55,4.20
2021,01,15,20,56,4.10
2021,01,15,20,57,4.10
2021,01,15,20,58,4.10
2021,01,15,20,59,4.10
2021,01,15,21,00,4.10
2021,01,15,21,01,4.00
2021,01,15,21,02,4.00
2021,01,15,21,03,3.90
2021,01,15,21,04,3.90
2021,01,15,21,05,3.90
2021,01,15,21,06,3.90
2021,01,15,21,07,3.90
2021,01,15,21,08,3.80
2021,01,15,21,09,3.80
2021,01,15,21,10,3.80
2021,01,15,21,11,3.80
2021,01,15,21,12,3.80
2021,01,15,21,13,3.80
2021,01,15,21,14,3.70
2021,01,15,21,15,3.70
2021,01,15,21,16,3.70
2021,01,15,21,17,3.70
2021,01,15,21,18,3.70
2021,01,15,21,19,3.70
2021,01,15,21,20,3.70
2021,01,15,21,21,3.70
2021,01,15,21,22,3.70
2021,01,15,21,23,3.70
2021,01,15,21,24,3.70
2021,01,15,21,25,3.70
2021,01,15,21,26,3.70
2021,01,15,21,27,3.70
2021,01,15,21,28,3.70
2021,01,15,21,29,3.70
2021,01,15,21,30,3.70
2021,01,15,21,31,3.70
2021,01,15,21,32,3.70
2021,01,15,21,33,3.70
2021,01,15,21,34,3.70